• In Portugal
  • List of Countries
  • For 7 days
  • Water Temperature
  • Satellite Maps
  • Weather Map
  • Weather Widgets
  • user-avatar
    Login

    Hourly Weather Pinsa

    Today, 22 October, Monday

    Time Temperature Precipitation Wind Pressure Humidity
    00:00 +34°C° 0 mm 2 mps 732 mmHg 15%
    01:00 +34°C° 0 mm 2 mps 732 mmHg 15%
    02:00 +32°C° 0 mm 2 mps 732 mmHg 16%
    03:00 +31°C° 0 mm 2 mps 732 mmHg 16%
    04:00 +31°C° 0 mm 2 mps 732 mmHg 17%
    05:00 +30°C° 0 mm 2 mps 732 mmHg 18%
    06:00 +29°C° 0 mm 2 mps 732 mmHg 20%
    07:00 +32°C° 0 mm 2 mps 733 mmHg 18%
    08:00 +35°C° 0 mm 2 mps 733 mmHg 17%
    09:00 +37°C° 0 mm 2 mps 734 mmHg 15%
    10:00 +39°C° 0 mm 2 mps 733 mmHg 14%
    11:00 +40°C° 0 mm 2 mps 733 mmHg 12%
    12:00 +42°C° 0 mm 2 mps 733 mmHg 10%
    13:00 +43°C° 0 mm 3 mps 732 mmHg 9%
    14:00 +44°C° 0 mm 4 mps 732 mmHg 8%
    15:00 +46°C° 0 mm 6 mps 731 mmHg 8%
    16:00 +43°C° 0 mm 5 mps 731 mmHg 8%
    17:00 +42°C° 0 mm 4 mps 731 mmHg 9%
    18:00 +39°C° 0 mm 3 mps 731 mmHg 9%
    19:00 +38°C° 0 mm 3 mps 732 mmHg 10%
    20:00 +37°C° 0 mm 3 mps 732 mmHg 10%
    21:00 +36°C° 0 mm 3 mps 733 mmHg 10%
    22:00 +35°C° 0 mm 2 mps 733 mmHg 10%
    23:00 +35°C° 0 mm 2 mps 733 mmHg 11%

    Tomorrow, 23 October, Tuesday

    Time Temperature Precipitation Wind Pressure Humidity
    00:00 +34°C° 0 mm 2 mps 733 mmHg 11%
    01:00 +32°C° 0 mm 1 mps 733 mmHg 12%
    02:00 +31°C° 0 mm 1 mps 732 mmHg 12%
    03:00 +30°C° 0 mm 1 mps 732 mmHg 13%
    04:00 +30°C° 0 mm 1 mps 732 mmHg 13%
    05:00 +30°C° 0 mm 1 mps 732 mmHg 14%
    06:00 +29°C° 0 mm 1 mps 733 mmHg 14%
    07:00 +32°C° 0 mm 1 mps 733 mmHg 12%
    08:00 +35°C° 0 mm 1 mps 734 mmHg 11%
    09:00 +39°C° 0 mm 1 mps 734 mmHg 9%
    10:00 +40°C° 0 mm 2 mps 734 mmHg 8%
    11:00 +43°C° 0 mm 3 mps 733 mmHg 7%
    12:00 +45°C° 0 mm 4 mps 733 mmHg 7%
    13:00 +45°C° 0 mm 4 mps 732 mmHg 7%
    14:00 +46°C° 0 mm 5 mps 732 mmHg 6%
    15:00 +47°C° 0 mm 6 mps 731 mmHg 6%
    16:00 +45°C° 0 mm 5 mps 731 mmHg 7%
    17:00 +42°C° 0 mm 4 mps 731 mmHg 8%
    18:00 +39°C° 0 mm 3 mps 731 mmHg 9%
    19:00 +39°C° 0 mm 3 mps 732 mmHg 9%
    20:00 +38°C° 0 mm 3 mps 732 mmHg 10%
    21:00 +37°C° 0 mm 3 mps 733 mmHg 10%
    22:00 +36°C° 0 mm 3 mps 733 mmHg 10%
    23:00 +36°C° 0 mm 3 mps 732 mmHg 11%

    Day after tomorrow, 24 October, Wednesday

    Time Temperature Precipitation Wind Pressure Humidity
    00:00 +35°C° 0 mm 3 mps 732 mmHg 11%
    01:00 +34°C° 0 mm 3 mps 732 mmHg 12%
    02:00 +34°C° 0 mm 3 mps 731 mmHg 12%
    03:00 +33°C° 0 mm 3 mps 731 mmHg 13%
    04:00 +31°C° 0 mm 2 mps 731 mmHg 14%
    05:00 +31°C° 0 mm 2 mps 731 mmHg 15%
    06:00 +30°C° 0 mm 1 mps 731 mmHg 16%
    07:00 +32°C° 0 mm 1 mps 732 mmHg 14%
    08:00 +36°C° 0 mm 2 mps 733 mmHg 13%
    09:00 +38°C° 0 mm 2 mps 733 mmHg 12%
    10:00 +40°C° 0 mm 2 mps 733 mmHg 11%
    11:00 +42°C° 0 mm 3 mps 733 mmHg 11%
    12:00 +44°C° 0 mm 3 mps 732 mmHg 10%
    13:00 +44°C° 0 mm 3 mps 731 mmHg 10%
    14:00 +45°C° 0 mm 3 mps 731 mmHg 9%
    15:00 +45°C° 0 mm 4 mps 730 mmHg 9%
    16:00 +44°C° 0 mm 3 mps 730 mmHg 10%
    17:00 +42°C° 0 mm 3 mps 730 mmHg 11%
    18:00 +39°C° 0 mm 2 mps 730 mmHg 12%
    19:00 +39°C° 0 mm 2 mps 731 mmHg 12%
    20:00 +38°C° 0 mm 2 mps 731 mmHg 13%
    21:00 +37°C° 0 mm 2 mps 732 mmHg 14%
    22:00 +36°C° 0 mm 2 mps 732 mmHg 15%
    23:00 +36°C° 0 mm 2 mps 731 mmHg 15%

    25 October, Thursday

    Time Temperature Precipitation Wind Pressure Humidity
    00:00 +35°C° 0 mm 2 mps 731 mmHg 16%
    01:00 +35°C° 0 mm 2 mps 731 mmHg 18%
    02:00 +34°C° 0 mm 3 mps 731 mmHg 20%
    03:00 +34°C° 0 mm 3 mps 730 mmHg 22%
    04:00 +33°C° 0 mm 4 mps 731 mmHg 26%
    05:00 +32°C° 0 mm 4 mps 731 mmHg 29%
    06:00 +32°C° 0 mm 5 mps 732 mmHg 33%
    07:00 +33°C° 0 mm 6 mps 732 mmHg 37%
    08:00 +34°C° 0 mm 6 mps 733 mmHg 41%
    09:00 +35°C° 0 mm 7 mps 733 mmHg 45%
    10:00 +38°C° 0 mm 7 mps 733 mmHg 39%
    11:00 +40°C° 0 mm 6 mps 733 mmHg 33%
    12:00 +42°C° 0 mm 6 mps 732 mmHg 28%
    13:00 +42°C° 0 mm 5 mps 731 mmHg 25%
    14:00 +43°C° 0 mm 4 mps 731 mmHg 22%
    15:00 +42°C° 0 mm 2 mps 730 mmHg 19%
    16:00 +42°C° 0 mm 2 mps 730 mmHg 20%
    17:00 +41°C° 0 mm 1 mps 731 mmHg 21%
    18:00 +40°C° 0 mm 1 mps 731 mmHg 21%
    19:00 +40°C° 0 mm 1 mps 731 mmHg 22%
    20:00 +39°C° 0 mm 1 mps 732 mmHg 23%
    21:00 +39°C° 0 mm 2 mps 732 mmHg 23%
    22:00 +38°C° 0 mm 2 mps 732 mmHg 25%
    23:00 +38°C° 0 mm 3 mps 732 mmHg 26%

    26 October, Friday

    Time Temperature Precipitation Wind Pressure Humidity
    00:00 +37°C° 0 mm 3 mps 732 mmHg 28%
    01:00 +37°C° 0 mm 4 mps 731 mmHg 29%
    02:00 +36°C° 0 mm 5 mps 731 mmHg 31%
    03:00 +36°C° 0 mm 5 mps 730 mmHg 33%
    04:00 +35°C° 0 mm 5 mps 731 mmHg 34%
    05:00 +35°C° 0 mm 5 mps 731 mmHg 34%
    06:00 +35°C° 0 mm 5 mps 732 mmHg 35%
    07:00 +36°C° 0 mm 5 mps 732 mmHg 34%
    08:00 +37°C° 0 mm 5 mps 733 mmHg 34%
    09:00 +39°C° 0 mm 6 mps 733 mmHg 33%
    10:00 +40°C° 0 mm 5 mps 733 mmHg 30%
    11:00 +41°C° 0 mm 4 mps 732 mmHg 28%
    12:00 +42°C° 0 mm 4 mps 732 mmHg 26%
    13:00 +42°C° 0 mm 3 mps 731 mmHg 24%
    14:00 +41°C° 0 mm 2 mps 731 mmHg 23%
    15:00 +42°C° 0 mm 1 mps 730 mmHg 22%
    16:00 +41°C° 0 mm 1 mps 730 mmHg 23%
    17:00 +40°C° 0 mm 1 mps 731 mmHg 23%
    18:00 +40°C° 0 mm 1 mps 731 mmHg 24%
    19:00 +39°C° 0 mm 2 mps 731 mmHg 26%
    20:00 +39°C° 0 mm 2 mps 732 mmHg 27%
    21:00 +38°C° 0 mm 3 mps 732 mmHg 29%
    22:00 +37°C° 0 mm 3 mps 732 mmHg 31%
    23:00 +37°C° 0 mm 3 mps 732 mmHg 33%

    27 October, Saturday

    Time Temperature Precipitation Wind Pressure Humidity
    00:00 +36°C° 0 mm 3 mps 731 mmHg 36%
    01:00 +35°C° 0 mm 3 mps 731 mmHg 37%
    02:00 +35°C° 0 mm 3 mps 731 mmHg 38%
    03:00 +35°C° 0 mm 3 mps 731 mmHg 39%
    04:00 +34°C° 0 mm 3 mps 731 mmHg 39%
    05:00 +34°C° 0 mm 3 mps 732 mmHg 40%
    06:00 +34°C° 0 mm 3 mps 732 mmHg 40%
    07:00 +35°C° 0 mm 3 mps 733 mmHg 39%
    08:00 +36°C° 0 mm 4 mps 733 mmHg 37%
    09:00 +37°C° 0 mm 5 mps 734 mmHg 36%
    10:00 +38°C° 0 mm 4 mps 733 mmHg 33%
    11:00 +40°C° 0 mm 4 mps 733 mmHg 31%
    12:00 +41°C° 0 mm 4 mps 732 mmHg 29%
    13:00 +40°C° 0 mm 3 mps 731 mmHg 27%
    14:00 +41°C° 0 mm 2 mps 731 mmHg 26%
    15:00 +41°C° 0 mm 1 mps 730 mmHg 25%
    16:00 +40°C° 0 mm 1 mps 730 mmHg 26%
    17:00 +39°C° 0 mm 1 mps 731 mmHg 28%
    18:00 +39°C° 0 mm 1 mps 731 mmHg 29%
    19:00 +38°C° 0 mm 2 mps 731 mmHg 30%
    20:00 +38°C° 0 mm 2 mps 732 mmHg 31%
    21:00 +38°C° 0 mm 3 mps 732 mmHg 31%
    22:00 +37°C° 0 mm 3 mps 732 mmHg 34%
    23:00 +36°C° 0 mm 4 mps 732 mmHg 37%

    28 October, Sunday

    Time Temperature Precipitation Wind Pressure Humidity
    00:00 +35°C° 0 mm 4 mps 732 mmHg 39%
    01:00 +35°C° 0 mm 4 mps 731 mmHg 42%
    02:00 +34°C° 0 mm 4 mps 731 mmHg 44%
    03:00 +34°C° 0 mm 4 mps 731 mmHg 46%
    04:00 +34°C° 0 mm 4 mps 732 mmHg 47%
    05:00 +34°C° 0 mm 4 mps 732 mmHg 48%
    06:00 +34°C° 0 mm 4 mps 733 mmHg 49%
    07:00 +34°C° 0.1 mm 4 mps 733 mmHg 47%
    08:00 +35°C° 0.1 mm 5 mps 734 mmHg 45%
    09:00 +36°C° 0.1 mm 5 mps 734 mmHg 43%
    10:00 +37°C° 0 mm 5 mps 734 mmHg 40%
    11:00 +39°C° 0 mm 5 mps 733 mmHg 36%
    12:00 +40°C° 0 mm 5 mps 732 mmHg 33%
    13:00 +40°C° 0 mm 3 mps 732 mmHg 31%
    14:00 +40°C° 0 mm 2 mps 731 mmHg 29%
    15:00 +41°C° 0 mm 1 mps 731 mmHg 26%
    16:00 +40°C° 0 mm 1 mps 731 mmHg 27%
    17:00 +39°C° 0 mm 1 mps 731 mmHg 28%
    18:00 +36°C° 0 mm 0 mps 732 mmHg 29%
    19:00 +37°C° 0 mm 3 mps 732 mmHg 34%
    20:00 +36°C° 0 mm 6 mps 732 mmHg 40%
    21:00 +35°C° 0 mm 9 mps 732 mmHg 45%
    22:00 +34°C° 0.5 mm 8 mps 732 mmHg 46%
    23:00 +34°C° 0.5 mm 8 mps 733 mmHg 47%
    Show more